Knows.nl

Technical website intelligence, screenshots, and crawl history.

Full Index

Showing up to 100 newest rows before ID 5670000.

IDDomainStatusLast visitURL
5669995 forum.7p.ro 200 2026-08-28 00:01:37 https://forum.7p.ro/
5669994 www.7p.ro 200 2026-08-28 00:01:36 https://www.7p.ro/
5669985 www.veryide.com 200 2026-08-28 00:00:06 http://www.veryide.com/
5669983 www.fullturkceindir.com 200 2026-08-27 23:59:12 https://www.fullturkceindir.com/
5669978 www.sector2bikes.nl 200 2026-08-27 23:59:07 https://www.sector2bikes.nl/
5669977 www.bikestories.be 200 2026-08-27 23:59:06 https://www.bikestories.be/
5669976 www.fietsspecialist.nl 200 2026-08-27 23:59:00 https://www.fietsspecialist.nl/
5669974 www.saga-hizen150.com 200 2026-08-27 23:58:57 https://www.saga-hizen150.com/
5669969 wiki-de.guildwars2.com 200 2026-08-27 23:58:36 https://wiki-de.guildwars2.com/
5669964 schwedentraum.de 200 2026-08-27 23:58:20 http://schwedentraum.de/
5669949 promexcut.com 200 2026-08-27 23:58:05 https://promexcut.com/
5669948 www.aufzaq.at 200 2026-08-27 23:57:52 https://www.aufzaq.at/
5669942 www.theusaposts.com 200 2026-08-27 23:57:40 https://www.theusaposts.com/
5669936 www.designsrl.com 200 2026-08-27 23:57:23 https://www.designsrl.com/
5669933 asymptote.net 200 2026-08-27 23:57:19 https://asymptote.net/
5669932 www.zaha-hadid.com 200 2026-08-27 23:57:17 https://www.zaha-hadid.com/
5669927 fashion.blogmura.com 200 2026-08-27 23:57:13 https://fashion.blogmura.com/
5669915 bishopgorman.myschoolapp.com 200 2026-08-27 23:56:09 https://bishopgorman.myschoolapp.com/
5669911 item-web.ru 200 2026-08-27 23:56:05 https://item-web.ru/
5669901 v1.quilljs.com 200 2026-08-27 23:55:48 https://v1.quilljs.com/
5669887 g.waitry.net 200 2026-08-27 23:54:06 https://g.waitry.net/
5669886 saleepepe.waitry.net 200 2026-08-27 23:54:05 https://saleepepe.waitry.net/
5669877 coola.com 200 2026-08-27 23:52:57 https://coola.com/
5669876 www.qtorb.com 200 2026-08-27 23:51:41 https://www.qtorb.com/
5669874 charlottesville.boutiquehotels.guru 200 2026-08-27 23:51:39 https://charlottesville.boutiquehotels.guru/
5669873 charlottesville.petallow.com 200 2026-08-27 23:51:37 https://charlottesville.petallow.com/
5669872 charlottesville.dogfriendlyhotels.co 200 2026-08-27 23:51:35 https://charlottesville.dogfriendlyhotels.co/
5669871 charlottesville.affordable-hotels.com 200 2026-08-27 23:51:33 https://charlottesville.affordable-hotels.com/
5669870 charlottesville.cabinsrental.net 200 2026-08-27 23:51:32 https://charlottesville.cabinsrental.net/
5669869 charlottesville-bedandbreakfast.com 200 2026-08-27 23:51:31 https://charlottesville-bedandbreakfast.com/
5669868 chicagocinematicweddings.com 200 2026-08-27 23:51:27 http://chicagocinematicweddings.com/
5669863 chicagocinematicweddings.wordpress.com 200 2026-08-27 23:51:21 https://chicagocinematicweddings.wordpress.com/
5669850 webssoprod.bancomext.gob.mx 200 2026-08-27 23:50:24 https://webssoprod.bancomext.gob.mx/
5669842 www.nar-anon.org 200 2026-08-27 23:49:58 https://www.nar-anon.org/
5669841 nar-anon.org 200 2026-08-27 23:49:54 http://nar-anon.org/
5669839 nar-anon-webstore.myshopify.com 200 2026-08-27 23:49:51 https://nar-anon-webstore.myshopify.com/
5669837 www.kullanicideneyimi.org.tr 200 2026-08-27 23:49:08 https://www.kullanicideneyimi.org.tr/
5669835 buluthelp-jdswsq5g.manus.space 503 2026-08-27 23:49:08 https://buluthelp-jdswsq5g.manus.space/
5669832 www.skljoc.hr 200 2026-08-27 23:49:06 https://www.skljoc.hr/
5669830 www.tzgz.hr 200 2026-08-27 23:49:04 https://www.tzgz.hr/
5669827 kazalistekerempuh.mojekarte.hr 200 2026-08-27 23:49:02 https://kazalistekerempuh.mojekarte.hr/
5669823 uriyaganor.com 200 2026-08-27 23:48:56 https://uriyaganor.com/
5669820 www.mastock.fr 200 2026-08-27 23:48:28 https://www.mastock.fr/
5669814 haradahp.web.fc2.com 200 2026-08-27 23:48:24 http://haradahp.web.fc2.com/
5669797 www.pokerbastards.com 200 2026-08-27 23:48:00 https://www.pokerbastards.com/
5669793 valkyriesparkles.tumblr.com 404 2026-08-27 23:47:55 https://valkyriesparkles.tumblr.com/
5669792 toyboxboy.tumblr.com 200 2026-08-27 23:47:54 https://toyboxboy.tumblr.com/
5669784 crm.leaderlix.com 200 2026-08-27 23:47:24 https://crm.leaderlix.com/
5669783 leaderlix.substack.com 200 2026-08-27 23:47:23 https://leaderlix.substack.com/
5669781 gerardobetancourt.com 200 2026-08-27 23:47:22 https://gerardobetancourt.com/
5669776 l.join1440.com 200 2026-08-27 23:47:03 https://l.join1440.com/
5669773 www.carsystem.org 200 2026-08-27 23:46:59 https://www.carsystem.org/
5669772 www.lechler.eu 200 2026-08-27 23:46:59 https://www.lechler.eu/
5669771 www.braune-lackvertrieb.de 200 2026-08-27 23:46:59 https://www.braune-lackvertrieb.de/
5669752 hcc.guardianconduct.com 200 2026-08-27 23:45:40 https://hcc.guardianconduct.com/
5669750 hagerstowncc.libguides.com 200 2026-08-27 23:45:39 https://hagerstowncc.libguides.com/
5669740 xn--80aqecjehnketm.xn--p1ai 200 2026-08-27 23:45:29 https://xn--80aqecjehnketm.xn--p1ai/
5669738 www.ly0577.com 404 2026-08-27 23:45:26 http://www.ly0577.com/
5669737 www.havingtech.cn 200 2026-08-27 23:45:25 http://www.havingtech.cn/
5669736 www.shliluo.com 403 2026-08-27 23:45:20 http://www.shliluo.com/
5669735 www.xingfayi.com 404 2026-08-27 23:44:52 http://www.xingfayi.com/
5669734 www.immunochina.com 200 2026-08-28 00:05:17 http://www.immunochina.com/
5669733 www.gy19.com 200 2026-08-27 23:44:40 http://www.gy19.com/
5669731 www.rhfs.com 200 2026-08-27 23:44:29 https://www.rhfs.com/
5669727 www.bulletinmedia.com 200 2026-08-27 23:44:08 https://www.bulletinmedia.com/
5669726 www.bulletinhealthcare.com 200 2026-08-27 23:44:08 https://www.bulletinhealthcare.com/
5669723 account.torbreck.com 200 2026-08-27 23:44:06 https://account.torbreck.com/
5669696 www.globalizer.com 200 2026-08-27 23:42:04 https://www.globalizer.com/
5669686 puga.me 403 2026-08-27 23:41:51 https://puga.me/
5669685 casagrida.com 200 2026-08-27 23:41:50 https://casagrida.com/
5669678 www.friendsofludhiana.org.uk 200 2026-08-27 23:41:24 https://www.friendsofludhiana.org.uk/
5669674 www.techcross-wne.com 200 2026-08-27 23:40:24 https://www.techcross-wne.com/
5669667 www.ministerstwoprezentow.com 200 2026-08-27 23:39:51 https://www.ministerstwoprezentow.com/
5669660 www.estericult.it 200 2026-08-27 23:38:48 https://www.estericult.it/
5669659 ticlassifico.it 404 2026-08-27 23:38:47 https://ticlassifico.it/
5669658 www.cartomanziatelefonoitalia.com 200 2026-08-27 23:38:45 https://www.cartomanziatelefonoitalia.com/
5669657 www.cartomanziabassocostoitalia.com 200 2026-08-27 23:38:42 https://www.cartomanziabassocostoitalia.com/
5669656 www.cartomanziasvizzerabassocosto.com 200 2026-08-27 23:38:41 https://www.cartomanziasvizzerabassocosto.com/
5669643 justfab-help-center.pages.dev 200 2026-08-27 23:37:32 https://justfab-help-center.pages.dev/
5669635 springcreekisd.org 200 2026-08-27 23:36:11 https://springcreekisd.org/
5669634 streams.seejh.ai 200 2026-08-27 23:36:08 https://streams.seejh.ai/
5669617 market.greenisgoodshow.shop 523 2026-08-27 23:34:19 https://market.greenisgoodshow.shop/
5669616 kirkkirkbosky.activecaribbeantravel.com 200 2026-08-27 23:33:59 https://kirkkirkbosky.activecaribbeantravel.com/
5669612 www.packing.gr 200 2026-08-27 23:31:45 https://www.packing.gr/
5669610 srsparivar.com 200 2026-08-27 23:31:43 http://srsparivar.com/
5669609 www.srsparivar.com 200 2026-08-27 23:31:40 https://www.srsparivar.com/
5669590 prozeny.blesk.cz 200 2026-08-27 23:29:54 https://prozeny.blesk.cz/
5669585 maradagv.blogspot.com 200 2026-08-27 23:29:47 https://maradagv.blogspot.com/
5669584 partlagukoor.blogspot.com 200 2026-08-27 23:29:44 https://partlagukoor.blogspot.com/
5669578 files.capt.gov.kw 403 2026-08-27 23:28:46 https://files.capt.gov.kw/
5669570 forum.sublimaster.ru 200 2026-08-27 23:28:07 https://forum.sublimaster.ru/
5669568 www.santanaparker.com 200 2026-08-27 23:27:59 https://www.santanaparker.com/
5669565 www.webforce.com 200 2026-08-27 23:27:29 https://www.webforce.com/
5669559 eyedesyn.tumblr.com 200 2026-08-27 23:26:12 https://eyedesyn.tumblr.com/
5669552 eurobarrafiat.com.br 200 2026-08-27 23:25:55 https://eurobarrafiat.com.br/
5669548 torontohumanesociety.donorsupport.co 200 2026-08-27 23:24:40 https://torontohumanesociety.donorsupport.co/
5669547 thumanedev.wpengine.com 200 2026-08-27 23:24:39 https://thumanedev.wpengine.com/
5669529 marvermelho.blogspot.com 200 2026-08-27 23:19:30 http://marvermelho.blogspot.com/
5669527 encarnados.blogspot.com 200 2026-08-27 23:19:21 https://encarnados.blogspot.com/
5669518 www.economicoproductivo.gob.ec 200 2026-08-27 23:17:53 https://www.economicoproductivo.gob.ec/